DW4230 Weather Reports


time (UTC)temp
F
wind
direction
speed
knots
gust
knots
rain 1hr
in
rain 24hr
in
rain mn
in
humidity
%
barometer
mb
20260507014605 54 249 6.1 15.6 0.00 0.14 0.14 95 1008.2
20260507013111 54 124 7.0 16.5 0.00 0.14 0.14 95 1008.4
20260507011520 54 255 8.7 15.6 0.01 0.14 0.14 94 1008.5
20260507010004 55 243 7.0 19.1 0.01 0.14 0.14 95 1008.3
20260507004509 55 124 11.3 17.4 0.01 0.14 0.14 94 1008.3
20260507003011 55 124 13.9 22.6 0.01 0.14 0.14 94 1008.1
20260507001504 55 254 11.3 20.9 0.03 0.13 0.13 94 1008.0
20260507000004 55 259 9.6 19.1 0.06 0.13 0.13 94 1008.0
20260506234502 55 210 10.4 21.7 0.09 0.13 0.13 94 1008.0
20260506233104 55 238 8.7 15.6 0.11 0.13 0.13 94 1008.1
20260506231549 55 232 10.4 19.1 0.09 0.10 0.10 93 1007.9
20260506230028 55 207 12.2 21.7 0.07 0.07 0.07 93 1008.2
20260506224530 55 185 10.4 20.0 0.04 0.04 0.04 93 1008.4
20260506223019 55 124 13.0 26.9 0.02 0.02 0.02 92 1008.5
20260506221604 55 232 13.0 20.9 0.01 0.01 0.01 91 1008.7
20260506220007 56 235 12.2 21.7 0.00 0.00 0.00 90 1008.6
20260506214603 56 238 13.9 25.2 0.00 0.00 0.00 90 1008.4
20260506213046 56 211 12.2 20.0 0.00 0.00 0.00 90 1008.6
20260506211611 56 246 12.2 23.5 0.00 0.00 0.00 90 1008.9
20260506210005 57 124 12.2 21.7 0.00 0.00 0.00 89 1009.0
20260506204602 56 231 9.6 20.0 0.00 0.00 0.00 89 1009.0
20260506203108 56 124 13.0 21.7 0.00 0.00 0.00 88 1009.0
20260506201527 57 239 11.3 25.2 0.00 0.00 0.00 87 1009.2
20260506200032 57 270 12.2 20.9 0.00 0.00 0.00 87 1009.2
20260506194546 57 247 10.4 21.7 0.00 0.00 0.00 87 1009.5
20260506193030 57 124 13.0 24.3 0.00 0.00 0.00 86 1009.6
20260506191535 57 124 10.4 19.1 0.00 0.00 0.00 86 1009.7
20260506190039 57 239 10.4 22.6 0.00 0.00 0.00 86 1009.9
20260506184612 58 124 13.0 22.6 0.00 0.00 0.00 85 1009.7
20260506183100 58 124 12.2 26.1 0.00 0.00 0.00 85 1010.2
20260506181505 58 241 12.2 20.9 0.00 0.00 0.00 85 1010.5
20260506180107 58 227 12.2 25.2 0.00 0.00 0.00 85 1010.7
20260506174502 58 268 11.3 22.6 0.00 0.00 0.00 84 1011.2
20260506173006 59 124 12.2 20.9 0.00 0.00 0.00 84 1011.1
20260506171519 59 124 12.2 24.3 0.00 0.00 0.00 84 1011.2
20260506170023 59 124 14.8 22.6 0.00 0.00 0.00 85 1011.3
20260506164537 58 234 13.0 24.3 0.00 0.00 0.00 85 1011.7
20260506163025 58 124 12.2 24.3 0.00 0.00 0.00 85 1011.7
20260506161617 58 124 10.4 17.4 0.00 0.00 0.00 85 1012.0
20260506160113 58 260 10.4 20.0 0.00 0.00 0.00 85 1012.3
20260506154550 58 124 9.6 20.0 0.00 0.00 0.00 85 1012.6
20260506153039 57 272 11.3 22.6 0.00 0.00 0.00 85 1012.7
20260506151554 58 239 10.4 20.0 0.00 0.00 0.00 85 1012.8
20260506150031 58 124 9.6 20.9 0.00 0.00 0.00 84 1012.7
20260506144518 58 250 10.4 18.2 0.00 0.00 0.00 85 1012.7
20260506143015 58 271 7.8 16.5 0.00 0.00 0.00 86 1012.6
20260506141613 57 239 7.0 16.5 0.00 0.00 0.00 85 1012.5
20260506140108 58 124 8.7 19.1 0.00 0.00 0.00 85 1012.6
20260506134600 58 124 10.4 19.1 0.00 0.00 0.00 85 1012.9
20260506133035 58 124 7.8 15.6 0.00 0.00 0.00 86 1012.9
20260506131534 57 124 8.7 16.5 0.00 0.00 0.00 86 1012.8
20260506130013 57 202 9.6 16.5 0.00 0.00 0.00 86 1012.5
20260506124511 57 253 7.0 15.6 0.00 0.00 0.00 87 1012.6
20260506123040 57 124 7.8 19.1 0.00 0.00 0.00 87 1012.6
20260506121503 57 202 8.7 19.1 0.00 0.00 0.00 87 1012.4
20260506120125 56 193 10.4 21.7 0.00 0.00 0.00 88 1012.8
20260506114548 56 264 11.3 18.2 0.00 0.00 0.00 89 1012.9
20260506113110 55 124 12.2 20.0 0.00 0.00 0.00 89 1012.9
20260506111605 56 124 8.7 15.6 0.00 0.00 0.00 89 1012.9
20260506110012 56 124 7.0 13.9 0.00 0.00 0.00 90 1013.1
20260506104504 55 124 7.0 15.6 0.00 0.00 0.00 91 1013.2
20260506103025 55 124 7.8 16.5 0.00 0.00 0.00 92 1012.8
20260506101529 54 263 7.0 13.0 0.00 0.00 0.00 92 1013.0
20260506100054 54 202 7.8 13.9 0.00 0.00 0.00 93 1012.8
20260506094546 54 262 7.0 13.9 0.00 0.00 0.00 92 1012.8
20260506093051 54 124 8.7 16.5 0.00 0.00 0.00 92 1012.8
20260506091532 54 124 8.7 17.4 0.00 0.00 0.00 92 1013.1
20260506090018 54 258 7.0 13.9 0.00 0.00 0.00 92 1013.1
20260506084523 54 260 6.1 13.0 0.00 0.00 0.00 92 1013.2
20260506083041 54 260 7.0 13.0 0.00 0.00 0.00 92 1013.3
20260506081536 54 258 7.0 16.5 0.00 0.00 0.00 92 1013.2
20260506073104 54 275 8.7 14.8 0.00 0.00 0.00 92 1013.2
20260506071548 54 256 8.7 14.8 0.00 0.00 0.00 92 1013.4
20260506070108 54 264 8.7 14.8 0.00 0.00 0.00 92 1013.2
20260506061526 54 124 10.4 17.4 0.00 0.00 0.00 91 1013.0
20260506060108 54 124 9.6 20.0 0.00 0.00 0.00 91 1013.2
20260506044512 54 235 11.3 20.0 0.00 0.00 0.00 90 1013.5
20260506043015 54 124 9.6 16.5 0.00 0.00 0.00 90 1013.5
20260506041512 54 124 8.7 14.8 0.00 0.00 0.00 90 1013.4
20260506040011 54 263 8.7 16.5 0.00 0.00 0.00 90 1013.5
20260506034605 54 261 7.8 13.9 0.00 0.00 0.00 90 1013.6
20260506033115 54 280 10.4 17.4 0.00 0.00 0.00 89 1013.5
20260506031515 54 262 8.7 20.0 0.00 0.00 0.00 89 1013.4
20260506030021 54 260 12.2 16.5 0.00 0.00 0.00 89 1013.2
20260506024611 54 124 11.3 17.4 0.00 0.00 0.00 88 1013.2
20260506023100 54 258 8.7 15.6 0.00 0.00 0.00 87 1013.1
20260506021616 54 124 8.7 16.5 0.00 0.00 0.00 86 1013.2
20260506020009 54 221 9.6 15.6 0.00 0.00 0.00 85 1013.3